Sioux Falls, SD

10:27 AM CST on December 04, 2016 (GMT -0600)
Foss

Weather History for KFSD - February, 2013

Change the Weather History Date:

Sunday, February 24, 2013

  Actual Average Record
Temperature  
Mean Temperature 16 °F 24 °F  
Max Temperature 27 °F 34 °F 61 °F (1996)
Min Temperature 5 °F 15 °F -30 °F (1965)
Degree Days  
Heating Degree Days 49 41  
Month to date heating degree days 1048 1021  
Since 1 July heating degree days 5454 5653  
Cooling Degree Days 0 0  
Month to date cooling degree days 0 0  
Year to date cooling degree days 0 0  
Moisture  
Dew Point 18 °F    
Average Humidity 91    
Maximum Humidity 100    
Minimum Humidity 81    
Precipitation  
Precipitation T in 0.03 in 0.57 in (2007)
Month to date precipitation 0.94 0.46  
Year to date precipitation 1.35 1.02  
Snow  
Snow T in 0.30 in 5.60 in (2012)
Month to date snowfall 9.6 5.6  
Since 1 July snowfall 25.5 30.2  
Snow Depth 4.00 in    
Sea Level Pressure  
Sea Level Pressure 30.05 in    
Wind  
Wind Speed 4 mph (NE)    
Max Wind Speed 8 mph    
Max Gust Speed -    
Visibility 3 miles    
Events Fog , Snow    
T = Trace of Precipitation, MM = Missing Value Source: NWS Daily Summary

Daily Weather History Graph

Daily Weather History Graph

Search for Another Location

Airport or City:

Trip Planner

Search our weather history database for the weather conditions in past years. The results will help you decide how hot, cold, wet, or windy it might be!

Date:

Astronomy

Feb. 24, 2013 Rise Set
Actual Time 7:11 AM CST 6:09 PM CST
Civil Twilight 6:42 AM CST 6:38 PM CST
Nautical Twilight 6:09 AM CST 7:11 PM CST
Astronomical Twilight 5:36 AM CST 7:45 PM CST
Moon 5:22 PM CST (2/24) 6:09 AM CST (2/24)
Length of Visible Light 11h 56m
Length of Day
10h 58m
Waxing Gibbous, 99% of the Moon is Illuminated
Feb 24
Waxing Gibbous
Feb 25
Full
Mar 4
Last Quarter
Mar 11
New
Mar 19
First Quarter

Hourly Weather History & Observations

Time (CST) Temp. Windchill Dew Point Humidity Pressure Visibility Wind Dir Wind Speed Gust Speed Precip Events Conditions
12:56 AM 9.0 °F -0.9 °F 7.0 °F 92% - 8.0 mi NNE 5.8 mph - N/A   Clear
1:56 AM 8.6 °F 2.0 °F 6.8 °F 92% - 8.0 mi NE 3.5 mph - N/A   Clear
2:56 AM 10.0 °F 1.8 °F 8.1 °F 92% - 8.0 mi NNE 4.6 mph - N/A   Clear
3:56 AM 10.9 °F 4.7 °F 8.1 °F 88% - 7.0 mi NE 3.5 mph - N/A   Clear
4:56 AM 12.9 °F 1.6 °F 10.9 °F 92% 29.97 in 7.0 mi NE 8.1 mph - N/A   Clear
5:56 AM 15.1 °F 5.2 °F 12.9 °F 91% 29.99 in 6.0 mi ENE 6.9 mph - N/A   Scattered Clouds
6:56 AM 12.9 °F 6.9 °F 10.9 °F 92% 30.01 in 6.0 mi NNE 3.5 mph - N/A   Mostly Cloudy
7:56 AM 14.0 °F 6.5 °F 10.9 °F 88% 30.03 in 5.0 mi NE 4.6 mph - N/A   Scattered Clouds
8:02 AM 12.2 °F 4.3 °F 10.4 °F 92% 29.95 in 5.0 mi NE 4.6 mph - N/A   Scattered Clouds
8:11 AM 14.0 °F 5.1 °F 10.4 °F 86% 29.95 in 5.0 mi NE 5.8 mph - N/A   Mostly Cloudy
8:56 AM 16.0 °F 10.4 °F 12.9 °F 88% 30.04 in 5.0 mi NNE 3.5 mph - N/A   Mostly Cloudy
9:36 AM 19.4 °F 10.4 °F 15.8 °F 86% 29.97 in 6.0 mi ENE 6.9 mph - N/A   Overcast
9:56 AM 21.0 °F 13.4 °F 17.1 °F 85% 30.05 in 6.0 mi ENE 5.8 mph - N/A   Overcast
10:56 AM 23.0 °F 15.8 °F 19.0 °F 85% 30.08 in 7.0 mi ESE 5.8 mph - N/A   Scattered Clouds
11:01 AM 21.2 °F 13.6 °F 17.6 °F 86% 30.00 in 7.0 mi ESE 5.8 mph - N/A   Scattered Clouds
11:09 AM 21.2 °F 11.7 °F 19.4 °F 93% 30.00 in 5.0 mi ESE 8.1 mph - N/A   Mostly Cloudy
11:26 AM 21.2 °F 14.9 °F 19.4 °F 93% 30.01 in 2.0 mi ENE 4.6 mph - N/A   Overcast
11:39 AM 21.2 °F 14.9 °F 19.4 °F 93% 30.01 in 1.5 mi East 4.6 mph - N/A   Overcast
11:56 AM 23.0 °F 17.0 °F 19.9 °F 88% 30.10 in 1.5 mi East 4.6 mph - N/A   Overcast
12:07 PM 21.2 °F 16.4 °F 21.2 °F 100% 30.00 in 1.5 mi East 3.5 mph - N/A   Overcast
12:46 PM 24.8 °F 20.5 °F 21.2 °F 86% 29.99 in 1.5 mi NNE 3.5 mph - N/A   Overcast
12:56 PM 25.0 °F 18.1 °F 21.0 °F 85% 30.08 in 1.5 mi NNE 5.8 mph - N/A   Overcast
1:46 PM 24.8 °F 19.1 °F 21.2 °F 86% 29.99 in 2.0 mi North 4.6 mph - N/A   Overcast
1:56 PM 25.0 °F 20.7 °F 21.0 °F 85% 30.07 in 2.0 mi NNE 3.5 mph - N/A   Overcast
2:47 PM 26.6 °F 22.6 °F 21.2 °F 80% 29.98 in 3.0 mi NE 3.5 mph - 0.00 in Snow Light Snow
2:56 PM 26.1 °F 20.5 °F 21.9 °F 84% 30.05 in 3.0 mi NNE 4.6 mph - 0.00 in   Overcast
3:52 PM 24.8 °F 19.1 °F 21.2 °F 86% 29.99 in 4.0 mi East 4.6 mph - N/A   Scattered Clouds
3:56 PM 25.0 °F 20.7 °F 21.0 °F 85% 30.07 in 4.0 mi East 3.5 mph - N/A   Scattered Clouds
4:32 PM 24.8 °F 19.1 °F 21.2 °F 86% 30.00 in 3.0 mi ENE 4.6 mph - N/A   Mostly Cloudy
4:47 PM 24.8 °F 19.1 °F 21.2 °F 86% 30.00 in 2.0 mi NNE 4.6 mph - N/A   Overcast
4:56 PM 25.0 °F - 21.9 °F 88% 30.08 in 2.0 mi Calm Calm - N/A   Overcast
5:56 PM 24.1 °F 19.7 °F 21.9 °F 91% 30.09 in 2.0 mi NNE 3.5 mph - N/A   Overcast
6:56 PM 24.1 °F 17.0 °F 21.9 °F 91% 30.10 in 2.0 mi ENE 5.8 mph - N/A   Overcast
7:56 PM 24.1 °F - 23.0 °F 96% 30.12 in 2.0 mi Calm Calm - N/A   Overcast
8:56 PM 25.0 °F - 23.0 °F 92% 30.13 in 2.0 mi Calm Calm - N/A   Overcast
9:01 PM 24.8 °F - 23.0 °F 93% 30.06 in 3.0 mi Calm Calm - N/A   Overcast
9:56 PM 21.9 °F 17.2 °F 21.0 °F 96% 30.14 in 3.0 mi West 3.5 mph - N/A   Overcast
10:18 PM 21.2 °F 14.9 °F 21.2 °F 100% 30.07 in 2.5 mi West 4.6 mph - N/A   Overcast
10:32 PM 21.2 °F 14.9 °F 21.2 °F 100% 30.07 in 1.8 mi West 4.6 mph - N/A   Overcast
10:39 PM 21.2 °F 16.4 °F 21.2 °F 100% 30.07 in 0.5 mi West 3.5 mph - N/A   Overcast
10:56 PM 21.9 °F 17.2 °F 21.0 °F 96% 30.14 in 0.5 mi West 3.5 mph - N/A Fog Light Freezing Fog
11:15 PM 21.2 °F - 19.4 °F 93% 30.07 in 0.2 mi Calm Calm - N/A Fog Light Freezing Fog
11:29 PM 21.2 °F - 21.2 °F 100% 30.06 in 0.5 mi Calm Calm - N/A Fog Light Freezing Fog
11:47 PM 21.2 °F - 19.4 °F 93% 30.06 in 1.0 mi Calm Calm - N/A   Mist
11:50 PM 19.4 °F - 19.4 °F 100% 30.06 in 0.8 mi Calm Calm - N/A   Mist
11:56 PM 19.9 °F - 19.0 °F 96% 30.13 in 1.0 mi Calm Calm - N/A   Mist